Truckee-Tahoe, CA

3:58 AM PDT on May 27, 2018 (GMT -0700)
Truckee-Tahoe

Weather History for KTRK - November, 2013

Change the Weather History Date:

Wednesday, November 6, 2013

  Actual Average Record
Temperature  
Mean Temperature 39 °F -  
Max Temperature 59 °F 55 °F 73 °F (1976)
Min Temperature 19 °F 26 °F 6 °F (1961)
Degree Days  
Heating Degree Days 26    
Moisture  
Dew Point 24 °F    
Average Humidity 72    
Maximum Humidity 93    
Minimum Humidity 27    
Precipitation  
Precipitation 0.00 in - - ()
Sea Level Pressure  
Sea Level Pressure 30.38 in    
Wind  
Wind Speed 1 mph (SSE)    
Max Wind Speed 5 mph    
Max Gust Speed -    
Visibility 10 miles    
Events      
Averages and records for this station are not official NWS values.
T = Trace of Precipitation, MM = Missing Value Source: NWS Daily Summary

Daily Weather History Graph

Daily Weather History Graph

Search for Another Location

Airport or City:

Astronomy

Nov. 06, 2013 Rise Set
Actual Time 6:34 AM PST 4:53 PM PST
Civil Twilight 6:06 AM PST 5:21 PM PST
Nautical Twilight 5:34 AM PST 5:53 PM PST
Astronomical Twilight 5:02 AM PST 6:24 PM PST
Moon 9:53 AM PST (11/6) 8:03 PM PST (11/6)
Length of Visible Light 11h 15m
Length of Day
10h 19m
Waxing Crescent, 14% of the Moon is Illuminated
Nov 6
Waxing Crescent
Nov 9
First Quarter
Nov 17
Full
Nov 25
Last Quarter
Dec 2
New

Hourly Weather History & Observations

Time (PST) Temp. Windchill Dew Point Humidity Pressure Visibility Wind Dir Wind Speed Gust Speed Precip Events Conditions
12:15 AM 23.0 °F - 19.4 °F 86% 30.38 in 10.0 mi Calm Calm - N/A   Clear
12:35 AM 24.8 °F - 19.4 °F 80% 30.38 in 10.0 mi Calm Calm - N/A   Clear
12:55 AM 23.0 °F - 19.4 °F 86% 30.39 in 10.0 mi Calm Calm - N/A   Clear
1:15 AM 23.0 °F 18.4 °F 19.4 °F 86% 30.39 in 10.0 mi East 3.5 mph - N/A   Clear
1:35 AM 21.2 °F 16.4 °F 17.6 °F 86% 30.39 in 10.0 mi SSW 3.5 mph - N/A   Clear
1:55 AM 24.8 °F - 19.4 °F 80% 30.38 in 10.0 mi Calm Calm - N/A   Clear
2:15 AM 23.0 °F - 17.6 °F 80% 30.39 in 10.0 mi Calm Calm - N/A   Clear
2:35 AM 24.8 °F - 19.4 °F 80% 30.39 in 10.0 mi Calm Calm - N/A   Clear
2:55 AM 23.0 °F - 17.6 °F 80% 30.39 in 10.0 mi Calm Calm - N/A   Clear
3:15 AM 24.8 °F - 19.4 °F 80% 30.39 in 10.0 mi Calm Calm - N/A   Clear
3:35 AM 23.0 °F - 19.4 °F 86% 30.39 in 10.0 mi Calm Calm - N/A   Clear
3:55 AM 23.0 °F - 19.4 °F 86% 30.39 in 10.0 mi Calm Calm - N/A   Clear
4:15 AM 23.0 °F - 19.4 °F 86% 30.40 in 10.0 mi Calm Calm - N/A   Clear
4:35 AM 23.0 °F - 19.4 °F 86% 30.40 in 10.0 mi Calm Calm - N/A   Clear
4:55 AM 21.2 °F - 17.6 °F 86% 30.41 in 10.0 mi Calm Calm - N/A   Clear
5:15 AM 23.0 °F - 19.4 °F 86% 30.41 in 10.0 mi Calm Calm - N/A   Clear
5:35 AM 19.4 °F - 17.6 °F 93% 30.41 in 10.0 mi Calm Calm - N/A   Clear
6:45 AM 19.4 °F 12.8 °F 17.6 °F 93% 30.42 in 10.0 mi South 4.6 mph - N/A   Scattered Clouds
7:45 AM 26.6 °F - 23.0 °F 86% 30.43 in 10.0 mi Calm Calm - N/A   Partly Cloudy
9:55 AM 37.4 °F 34.9 °F 24.8 °F 60% 30.42 in 10.0 mi West 3.5 mph - N/A   Mostly Cloudy
11:55 AM 50.0 °F - 28.4 °F 43% 30.39 in 10.0 mi SE 3.5 mph - N/A   Mostly Cloudy
12:50 PM 55.4 °F - 28.4 °F 36% 30.37 in 10.0 mi Calm Calm - N/A   Mostly Cloudy
1:50 PM 59.0 °F - 28.4 °F 31% 30.35 in 10.0 mi Calm Calm - N/A   Mostly Cloudy
2:55 PM 59.0 °F - 24.8 °F 27% 30.33 in 10.0 mi SSE 3.5 mph - N/A   Mostly Cloudy
3:55 PM 57.2 °F - 24.8 °F 29% 30.32 in 10.0 mi Calm Calm - N/A   Scattered Clouds
4:45 PM 51.8 °F - 24.8 °F 35% 30.33 in 10.0 mi SE 4.6 mph - N/A   Mostly Cloudy
4:55 PM 51.8 °F - 24.8 °F 35% 30.33 in 10.0 mi South 3.5 mph - N/A   Clear
5:15 PM 48.2 °F - 24.8 °F 40% 30.33 in 8.0 mi Calm Calm - N/A   Clear
5:35 PM 44.6 °F - 28.4 °F 53% 30.34 in 10.0 mi Calm Calm - N/A   Clear
5:55 PM 41.0 °F 39.0 °F 26.6 °F 57% 30.34 in 10.0 mi SSE 3.5 mph - N/A   Clear
6:15 PM 39.2 °F - 28.4 °F 65% 30.35 in 10.0 mi Calm Calm - N/A   Clear
6:35 PM 37.4 °F - 26.6 °F 65% 30.36 in 10.0 mi Calm Calm - N/A   Clear
6:55 PM 41.0 °F - 28.4 °F 61% 30.36 in 10.0 mi Calm Calm - N/A   Clear
7:15 PM 37.4 °F - 28.4 °F 70% 30.37 in 10.0 mi Calm Calm - N/A   Clear
7:35 PM 35.6 °F 32.8 °F 26.6 °F 70% 30.37 in 10.0 mi SE 3.5 mph - N/A   Clear
7:55 PM 32.0 °F - 26.6 °F 80% 30.37 in 10.0 mi Calm Calm - N/A   Clear
8:15 PM 35.6 °F 32.8 °F 28.4 °F 75% 30.37 in 10.0 mi SSW 3.5 mph - N/A   Clear
8:35 PM 33.8 °F - 28.4 °F 81% 30.38 in 10.0 mi Calm Calm - N/A   Clear
8:55 PM 32.0 °F - 28.4 °F 87% 30.38 in 10.0 mi Calm Calm - N/A   Clear
9:15 PM 33.8 °F - 28.4 °F 81% 30.38 in 10.0 mi Calm Calm - N/A   Clear
9:35 PM 33.8 °F - 26.6 °F 75% 30.38 in 10.0 mi Calm Calm - N/A   Clear
9:55 PM 33.8 °F - 28.4 °F 81% 30.39 in 10.0 mi Calm Calm - N/A   Clear
10:15 PM 32.0 °F - 28.4 °F 87% 30.38 in 10.0 mi Calm Calm - N/A   Clear
10:35 PM 32.0 °F - 28.4 °F 87% 30.38 in 10.0 mi Calm Calm - N/A   Clear
10:55 PM 33.8 °F - 28.4 °F 81% 30.37 in 10.0 mi Calm Calm - N/A   Clear
11:15 PM 32.0 °F - 28.4 °F 87% 30.37 in 10.0 mi Calm Calm - N/A   Clear
11:55 PM 32.0 °F 28.7 °F 26.6 °F 80% 30.35 in 10.0 mi SSW 3.5 mph - N/A   Clear